Date String (YYYY-MM-DD hh:mm:ss) UTC,Instrument flags,Ambient pressure (hPa),Sample flow (lpm),Bypass flow (lpm),Sample temperature (°C),Ambient temperature (°C),ASC tube jacket temperature (°C),LED temperature (°C),Box temperature (°C),Sample RH (%),Span deviation,Mass concentration (μg/m³),Mass concentration (μg/m³),Mass concentration (μg/m³)
DateTimeUTC,F1_M11,P_M11,Q1_M11,Q2_M11,T1_M11,T2_M11,T3_M11,T4_M11,T5_M11,U1_M11,ZSPAN_M11,X0_M11,X2_M11,X1_M11
2022-11-05 09:00:00,,0814.4,5.00,0.00,22.6,21.1,00.0,31.3,24.5,13.8,0000.2,0010.24,0007.04,0006.71
2022-11-05 09:01:00,,0814.4,5.00,0.00,22.6,21.1,00.0,31.3,24.5,14.0,0001.0,0010.76,0007.07,0006.73
2022-11-05 09:02:00,,0814.3,5.00,0.00,22.6,21.0,00.0,31.3,24.4,14.0,0002.0,0010.83,0007.12,0006.77
2022-11-05 09:03:00,,0814.4,5.00,0.00,22.5,21.0,00.0,31.3,24.4,14.1,0001.8,0010.87,0007.16,0006.82
2022-11-05 09:04:00,,0814.4,5.00,0.00,22.5,21.0,00.0,31.3,24.4,14.2,0001.2,0010.78,0007.20,0006.88
2022-11-05 09:05:00,,0814.2,5.00,0.00,22.5,21.0,00.0,31.3,24.4,14.2,0000.9,0010.76,0007.24,0006.93
2022-11-05 09:06:00,,0814.3,5.00,0.00,22.5,21.0,00.0,31.3,24.4,14.3,0000.6,0010.75,0007.30,0007.01
2022-11-05 09:07:00,,0814.6,5.00,0.00,22.6,21.1,00.0,31.3,24.5,14.4,0000.6,0010.89,0007.44,0007.14
2022-11-05 09:08:00,,0814.4,5.00,0.00,22.6,21.1,00.0,31.3,24.5,14.4,0000.7,0010.86,0007.54,0007.23
2022-11-05 09:09:00,,0814.3,4.98,0.00,22.6,21.2,00.0,31.3,24.5,14.4,0000.7,0010.66,0007.57,0007.27
2022-11-05 09:10:00,,0814.2,5.00,0.00,22.6,21.2,00.0,31.3,24.5,14.4,0000.7,0010.67,0007.60,0007.31
2022-11-05 09:11:00,,0814.3,5.00,0.00,22.6,21.1,00.0,31.3,24.5,14.4,0000.2,0010.53,0007.64,0007.37
2022-11-05 09:12:00,,0814.4,5.01,0.00,22.6,21.2,00.0,31.3,24.5,14.4,-000.2,0010.04,0007.66,0007.42
2022-11-05 09:13:00,,0814.1,5.00,0.00,22.6,21.2,00.0,31.3,24.5,14.5,-000.8,0010.32,0007.71,0007.46
2022-11-05 09:14:00,,0814.3,5.00,0.00,22.6,21.2,00.0,31.3,24.5,14.5,-001.2,0010.60,0007.74,0007.50
2022-11-05 09:15:00,,0814.1,5.00,0.00,22.6,21.1,00.0,31.3,24.5,14.5,-001.4,0010.87,0007.81,0007.55
2022-11-05 09:16:00,,0814.2,4.99,0.00,22.6,21.1,00.0,31.3,24.4,14.5,-001.4,0010.95,0007.87,0007.58
2022-11-05 09:17:00,,0814.4,4.99,0.00,22.6,21.1,00.0,31.3,24.5,14.5,-001.2,0011.24,0007.95,0007.63
2022-11-05 09:18:00,,0814.2,5.01,0.00,22.6,21.6,00.0,31.3,24.6,14.5,-001.4,0011.40,0007.97,0007.67
2022-11-05 09:19:00,,0814.7,5.01,0.00,22.7,22.3,00.0,31.3,24.8,14.4,-001.6,0011.58,0008.03,0007.70
2022-11-05 09:20:00,,0814.5,4.99,0.00,22.8,22.2,00.0,31.4,24.8,14.4,-001.8,0011.93,0008.04,0007.73
2022-11-05 09:21:00,,0814.4,4.99,0.00,22.8,22.1,00.0,31.4,24.8,14.4,-001.7,0012.64,0008.07,0007.77
2022-11-05 09:22:00,,0814.5,5.01,0.00,22.8,21.9,00.0,31.4,24.8,14.4,-001.6,0012.85,0008.11,0007.80
2022-11-05 09:23:00,,0814.3,4.98,0.00,22.8,21.8,00.0,31.4,24.8,14.4,-001.5,0013.69,0008.16,0007.81
2022-11-05 09:24:00,,0814.4,5.02,0.00,22.8,21.7,00.0,31.5,24.7,14.4,-001.5,0013.44,0008.16,0007.81
2022-11-05 09:25:00,,0814.7,4.99,0.00,22.8,21.6,00.0,31.5,24.7,14.3,-001.6,0013.23,0008.18,0007.82
2022-11-05 09:26:00,,0814.5,5.00,0.00,22.8,21.5,00.0,31.5,24.7,14.3,-001.5,0013.18,0008.20,0007.83
2022-11-05 09:27:00,,0814.3,5.00,0.00,22.8,21.5,00.0,31.5,24.7,14.3,-001.4,0013.18,0008.19,0007.82
2022-11-05 09:28:00,,0814.3,5.01,0.00,22.8,21.4,00.0,31.5,24.6,14.3,-001.3,0013.22,0008.17,0007.80
2022-11-05 09:29:00,,0814.2,5.00,0.00,22.7,21.4,00.0,31.5,24.6,14.2,-001.1,0013.25,0008.18,0007.79
2022-11-05 09:30:00,,0814.0,5.01,0.00,22.7,21.4,00.0,31.5,24.6,14.2,-001.3,0013.25,0008.17,0007.78
2022-11-05 09:31:00,,0814.1,5.00,0.00,22.7,21.4,00.0,31.5,24.7,14.2,-001.4,0012.93,0008.15,0007.76
2022-11-05 09:32:00,,0814.2,4.99,0.00,22.8,21.4,00.0,31.5,24.7,14.1,-001.7,0012.11,0008.13,0007.72
2022-11-05 09:33:00,,0814.0,5.00,0.00,22.8,21.4,00.0,31.5,24.7,14.1,-001.5,0012.07,0008.11,0007.68
2022-11-05 09:34:00,,0814.3,5.00,0.00,22.8,21.4,00.0,31.5,24.7,14.1,-001.5,0011.31,0008.06,0007.64
2022-11-05 09:35:00,,0814.1,5.00,0.00,22.7,21.4,00.0,31.5,24.6,14.1,-001.5,0011.31,0008.05,0007.62
2022-11-05 09:36:00,,0814.3,4.98,0.00,22.7,21.3,00.0,31.5,24.6,14.0,-001.5,0011.35,0008.03,0007.57
2022-11-05 09:37:00,,0814.0,5.01,0.00,22.7,21.3,00.0,31.5,24.6,13.8,-001.3,0011.30,0007.94,0007.50
2022-11-05 09:38:00,,0814.2,5.00,0.00,22.7,21.3,00.0,31.5,24.6,13.5,-001.3,0011.26,0007.86,0007.41
2022-11-05 09:39:00,,0814.0,5.01,0.00,22.8,21.3,00.0,31.5,24.6,13.3,-001.5,0011.65,0007.76,0007.32
2022-11-05 09:40:00,,0814.0,5.01,0.00,22.8,21.3,00.0,31.5,24.6,13.3,-001.7,0011.77,0007.67,0007.21
2022-11-05 09:41:00,,0814.4,4.99,0.00,22.8,21.3,00.0,31.5,24.6,13.7,-001.5,0011.64,0007.62,0007.17
2022-11-05 09:42:00,,0813.9,4.99,0.00,22.8,21.3,00.0,31.5,24.7,13.6,-001.3,0011.61,0007.57,0007.12
2022-11-05 09:43:00,,0813.9,5.01,0.00,22.7,21.3,00.0,31.5,24.7,13.6,-001.0,0011.63,0007.54,0007.08
2022-11-05 09:44:00,,0813.9,5.00,0.00,22.7,21.3,00.0,31.5,24.7,13.7,-000.9,0011.73,0007.49,0007.04
2022-11-05 09:45:00,,0813.9,5.00,0.00,22.8,21.3,00.0,31.5,24.7,13.6,-000.8,0012.07,0007.45,0007.00
2022-11-05 09:46:00,,0814.2,5.00,0.00,22.7,21.3,00.0,31.5,24.6,13.6,-000.2,0012.01,0007.40,0006.98
2022-11-05 09:47:00,,0814.1,5.00,0.00,22.7,21.3,00.0,31.5,24.6,13.6,0000.1,0012.66,0007.37,0006.95
2022-11-05 09:48:00,,0813.9,5.00,0.00,22.7,21.3,00.0,31.5,24.6,13.4,0000.2,0012.72,0007.34,0006.92
2022-11-05 09:49:00,,0813.9,5.00,0.00,22.7,21.3,00.0,31.5,24.7,13.3,-000.5,0012.81,0007.33,0006.90
2022-11-05 09:50:00,,0814.2,5.00,0.00,22.7,21.3,00.0,31.5,24.6,13.4,-000.8,0012.20,0007.33,0006.91
2022-11-05 09:51:00,,0814.2,5.00,0.00,22.7,21.3,00.0,31.5,24.7,13.4,-001.2,0011.72,0007.34,0006.94
2022-11-05 09:52:00,,0813.8,5.00,0.00,22.7,21.3,00.0,31.5,24.7,13.3,-001.5,0011.90,0007.29,0006.90
2022-11-05 09:53:00,,0813.5,5.00,0.00,22.7,21.3,00.0,31.5,24.7,13.2,-002.0,0011.82,0007.25,0006.85
2022-11-05 09:54:00,,0813.5,5.00,0.00,22.7,21.3,00.0,31.5,24.6,13.3,-001.5,0011.66,0007.18,0006.82
2022-11-05 09:55:00,,0813.4,4.99,0.00,22.7,21.2,00.0,31.5,24.6,13.2,-001.8,0011.51,0007.11,0006.77
2022-11-05 09:56:00,,0813.5,4.99,0.00,22.7,21.1,00.0,31.5,24.5,13.3,-001.5,0011.06,0007.09,0006.72
2022-11-05 09:57:00,,0813.4,5.01,0.00,22.7,21.0,00.0,31.5,24.5,13.2,-001.8,0010.91,0007.03,0006.64
2022-11-05 09:58:00,,0813.5,5.00,0.00,22.6,21.0,00.0,31.4,24.5,13.3,-001.7,0010.28,0006.96,0006.57
2022-11-05 09:59:00,,0813.5,4.99,0.00,22.6,21.0,00.0,31.4,24.5,13.3,-001.7,0009.86,0006.92,0006.55
